Location: Emmingen-Liptingen
(47.9337°N, 8.8703°E)
Time: 22:42:37
(UTC+00:00)

Daily predictions for brighter satellites

Satellite Brightness Start Highest point End
(mag) Time Altitude Azimuth Time Altitude Azimuth Time Altitude Azimuth
Sich 1 Rocket 3.8 17:11:10 10° N 17:15:38 53° ENE 17:20:05 10° SSE
ATLAS 2AS CENTAUR R/B 4.2 17:10:33 10° WNW 17:16:17 27° NNW 17:21:57 10° NE
GP-B 3.1 17:11:57 10° S 17:16:18 90° SSE 17:20:43 10° N
Cosmos 2123 Rocket 4.4 17:11:27 10° SSW 17:17:45 73° W 17:24:04 10° N
SKYMED 2 3.8 17:15:04 10° NNE 17:19:19 50° E 17:23:32 10° S
Resurs 1-3 3.8 17:15:48 10° SE 17:19:56 49° ENE 17:24:06 10° N
IRS-1C 4.4 17:16:49 10° S 17:22:08 75° WSW 17:27:29 10° NNW
Lacrosse 5 rocket 2.6 17:21:01 10° WNW 17:23:59 25° NNW 17:27:02 10° NE
Resurs 01 Rocket 2.5 17:23:48 10° SE 17:27:33 28° ENE 17:31:19 10° N
Cosmos 1782 4.1 17:30:02 10° NNE 17:32:20 16° ENE 17:34:37 10° ESE
CZ-4 R/B 4.3 17:28:32 10° SSE 17:32:30 90° WSW 17:36:30 10° NNW
SPOT 1/Viking Rocket 3.7 17:28:31 10° S 17:33:38 80° WSW 17:38:48 10° NNW
Cosmos 1674 Rocket 3.8 17:29:17 10° SSW 17:33:39 74° W 17:38:06 10° N
USA 267 3.4 17:31:24 10° NE 17:37:57 75° NNW 17:44:28 10° WSW
CARTOSAT-1 3.8 17:34:01 10° SE 17:38:00 43° ENE 17:42:00 10° N
Radarsat Rocket 4.0 17:35:23 10° SSE 17:41:12 66° ENE 17:47:33 10° NNW
ARIANE 6 FM1 Upper Stage 3.9 17:40:03 10° NNW 17:43:17 23° NNE 17:45:29 15° ENE
Cosmos 2297 Rocket 2.2 17:40:47 10° SSW 17:46:25 76° ESE 17:52:05 10° NNE
Cosmos 1447 Rocket 4.4 17:41:39 10° S 17:47:45 78° E 17:53:54 10° NNE
SPOT 5 4.1 17:52:21 15° E 17:55:00 23° ENE 17:58:54 10° N
Cosmos 2058 4.4 17:52:48 10° SE 17:54:19 16° ESE 17:54:19 16° ESE
SeaSat 1 3.2 17:51:56 10° SSE 17:56:44 56° WSW 18:01:34 10° NW
SJ-6B 3.2 17:54:48 10° SE 17:57:53 32° ENE 18:01:00 10° N
IRAS Rocket 4.5 17:53:00 10° SE 17:58:21 48° ENE 18:03:45 10° N
Tiangong -0.3 17:56:12 10° SW 17:58:44 22° S 18:00:16 16° SE
PSLV R/B 3.3 17:58:36 10° SSE 18:02:43 80° ENE 18:06:49 10° NNW
Cosmos 2219 4.5 17:59:41 10° SE 18:03:30 18° E 18:03:33 18° E
Cosmos 2228 3.1 18:00:30 10° N 18:04:35 49° ENE 18:08:40 10° SSE
COSMO-SKYMED 1 2.3 18:01:04 10° NNE 18:05:12 87° E 18:09:19 10° SSW
Meteor 1-31 Rocket 4.1 18:06:27 18° NE 18:06:27 18° NE 18:08:08 10° NNE
NOSS 3-3 (C) 4.3 18:00:35 10° WSW 18:05:49 58° NW 18:12:09 10° NE
Cosmos 1570 Rocket 4.0 18:01:49 10° SSW 18:07:06 87° ESE 18:12:23 10° NNE
Cosmos 1544 Rocket 4.4 18:03:29 10° N 18:07:16 28° ENE 18:08:59 22° ESE
CZ-2D R/B 3.7 18:03:41 10° S 18:07:34 66° WSW 18:11:36 10° NNW
YAOGAN 3 4.4 18:03:51 10° SSE 18:08:02 72° ENE 18:12:14 10° N
Cosmos 2344 3.9 18:01:50 10° S 18:09:07 39° ESE 18:14:28 15° ENE
YAOGAN 1 3.4 18:07:37 10° S 18:11:46 52° W 18:15:57 10° NNW
Cosmos 1513 Rocket 4.5 18:05:51 10° N 18:12:11 86° E 18:18:34 10° S
Cosmos 1455 Rocket 3.1 18:08:00 10° NNW 18:12:18 78° W 18:16:36 10° S
Cosmos 2263 Rocket 2.8 18:08:08 10° SSE 18:13:10 34° ESE 18:16:41 18° NE
Cosmos 1975 Rocket 3.0 18:10:02 10° S 18:14:18 58° E 18:18:33 10° NNE
USA 234 4.2 18:09:18 10° SSE 18:15:32 46° SW 18:21:48 10° WNW
Cosmos 1980 4.5 18:10:29 10° NW 18:16:00 55° WSW 18:21:28 10° S
Cosmos 2034 Rocket 4.2 18:10:16 10° N 18:16:11 46° ENE 18:22:07 10° SSE
DMSP B5D1-3 4.4 18:11:19 10° NNE 18:16:25 65° ESE 18:21:29 10° S
Cosmos 1072 Rocket 4.4 18:10:58 10° N 18:17:13 73° E 18:23:20 10° SSE
Cosmos 2237 Rocket 3.0 18:15:39 10° NW 18:21:11 54° WSW 18:26:42 10° S
Cosmos 773 Rocket 4.0 18:18:16 10° SSW 18:23:34 88° WNW 18:28:53 10° NNE
NOAA 6 4.3 18:19:24 10° S 18:24:31 71° WSW 18:29:42 10° NNW
DNEPR-1 R/B 4.0 18:20:40 10° NW 18:25:35 88° NE 18:30:45 14° SE
Cosmos 2208 Rocket 4.0 18:24:15 10° SSW 18:29:30 85° WNW 18:34:52 10° NNE
Terra 3.6 18:31:24 16° NNE 18:31:24 16° NNE 18:32:55 10° NNE
Meteor 2-17 Rocket 4.4 18:29:39 10° S 18:35:43 83° W 18:41:48 10° N
Cosmos 1346 Rocket 2.3 18:34:44 10° S 18:38:21 77° E 18:40:09 28° NNE
Cosmos 44 Rocket 3.6 18:33:57 10° SW 18:38:52 70° NW 18:42:34 19° NNE
TSX-5 4.3 18:36:25 10° NNW 18:41:31 54° NE 18:42:13 48° E
Cosmos 1602 4.0 18:39:22 10° SSW 18:42:01 44° WNW 18:43:14 26° NNW
Cosmos 1464 Rocket 4.1 18:36:55 10° N 18:43:18 81° W 18:49:34 10° S
CZ-4C R/B 3.7 18:39:57 10° W 18:44:01 27° NNW 18:48:41 11° NNE
Cosmos 2227 Rocket 2.1 18:40:11 10° SSW 18:45:50 88° WNW 18:51:30 10° NNE
SL-16 R/B 2.1 18:42:17 10° NNW 18:47:58 77° ENE 18:50:49 31° SE
Helios 1A Rocket 3.8 18:49:54 28° SSW 18:49:54 28° SSW 18:51:35 10° SSW
NOSS 3-4 (A) 4.4 18:45:15 10° NW 18:51:56 57° WSW 18:59:45 10° SSE
NOSS 3-4 (C) 4.4 18:45:31 10° NW 18:52:14 57° WSW 19:00:03 10° SSE
CZ-4 R/B 3.0 19:02:51 22° N 19:02:51 22° N 19:04:17 10° N
Lacrosse 5 rocket 3.1 18:59:03 10° NW 19:01:16 19° N 19:01:16 19° N
Resurs 01 Rocket 3.3 18:59:49 10° SSW 19:03:49 34° W 19:07:51 10° NNW
BREEZE-M DEB (TANK) 4.0 19:02:48 10° SW 19:07:06 58° SE 19:11:13 36° E
Cosmos 1782 3.9 19:03:52 10° NNW 19:07:14 38° W 19:09:32 17° SSW
ATLAS 2AS CENTAUR R/B 4.2 19:04:25 10° NW 19:09:31 22° N 19:11:46 18° NNE
CZ-4B R/B 3.6 19:12:00 44° NNE 19:12:00 44° NNE 19:16:04 10° N
Gbstr 26 Del rocket 4.2 19:06:20 10° SW 19:13:12 69° SSE 19:15:03 52° E
CSL-04 Debris 4.1 19:12:11 40° SSE 19:14:14 89° WSW 19:19:42 10° NNW
CZ-4B DEB 4.0 19:14:53 66° SE 19:15:37 79° ENE 19:21:06 10° NNW
ERS-1 Rocket 3.9 19:20:01 35° NNE 19:20:01 35° NNE 19:23:02 10° N
CSL-04 Rocket 3.7 19:17:14 36° S 19:19:27 75° WSW 19:24:45 10° NNW
USA 267 4.0 19:17:48 30° NE 19:20:30 43° N 19:26:36 10° WNW
ARIANE 6 FM1 Upper Stage 3.6 19:18:42 10° NW 19:21:31 43° WNW 19:21:31 43° WNW
RESURS DK-1 4.5 19:23:33 10° NNW 19:24:45 18° NNW 19:24:45 18° NNW
Cosmos 2297 Rocket 4.3 19:26:33 10° W 19:31:04 24° NW 19:35:36 10° N
Cosmos 2058 4.5 19:27:37 10° SW 19:29:54 28° WSW 19:29:54 28° WSW
SPOT 5 3.4 19:31:23 46° SSW 19:32:29 57° W 19:37:31 10° NNW
Cosmos 1943 3.5 19:29:01 10° NNW 19:33:43 57° N 19:33:43 57° N
Okean O Rocket 4.3 19:39:04 10° N 19:39:04 10° N 19:39:06 10° N
Tsikada Rocket 4.0 19:28:55 10° SSW 19:35:04 80° W 19:41:17 10° N
Tiangong 1.3 19:32:32 10° WSW 19:32:34 10° WSW 19:32:34 10° WSW
Gblst 52 Del rocket 4.5 19:30:41 10° WNW 19:38:00 77° NNE 19:38:18 75° NE
MOS 1 4.3 19:38:45 71° N 19:38:45 71° N 19:43:47 10° NNW
Cosmos 2219 3.7 19:41:11 10° SSW 19:45:34 54° SW 19:45:34 54° SW
ADEOS 4.5 19:53:50 43° NNW 19:53:50 43° NNW 19:57:22 10° NNW
Cosmos 2263 Rocket 3.1 19:51:29 10° SW 19:56:55 45° NW 19:58:28 37° NNW
Terra 4.0 20:10:00 20° NNW 20:10:00 20° NNW 20:11:26 10° NNW
Cosmos 2344 4.0 20:15:52 10° WSW 20:23:13 53° NW 20:24:32 47° N
Cosmos 2227 Rocket 4.4 20:26:35 10° W 20:30:43 20° NW 20:33:22 15° N
SL-16 R/B 4.4 20:27:38 10° WNW 20:31:23 18° W 20:32:45 17° WSW
CZ-4C R/B 4.4 20:30:25 10° NW 20:33:37 18° N 20:33:37 18° N
ATLAS 2AS CENTAUR R/B 4.4 20:56:04 10° NW 20:59:11 25° NNW 20:59:11 25° NNW
